Weather in Petrcane

Croatia     44°11′07″N   15°09′42″E
В апреле 2022 года жителям России запретили посещать сайт meteo.paraplan.net по решению Генеральной прокуратуры. Аудитория сайта уменьшилась в 10 раз. Владельцы сайта не видят смысла в поддержке погодного сервера в таких условиях. Сайт будет закрыт в октябре.
temp.,
°C
wind,
m/s
gust,
m/s
humid.,
%
clouds,
%
prec.,
mm/h
press.,
hPa
HPBL,
m
6 october, thu
thu623:00+17nw0268100 0.0 1027195
02:00+17ene1174100 0.0 1027139
05:00+17nne117681 0.0 1026137
08:00+17e0176100 0.0 1027115
11:00+20w2364100 0.0 1027504
14:00+21wnw5466100 0.0 1027461
17:00+21wnw5568100 0.0 1026267
20:00+20n466888 0.0 1026176
7 october, fri
fri723:00+18ne6766100 0.0 1026141
02:00+17ne5664100 0.0 1025131
05:00+17ne566488 0.0 1025126
08:00+17ne566484 0.0 1024124
11:00+22nne3346100 0.0 1024429
14:00+22w3252100 0.0 1022289
17:00+20w3362100 0.0 1021207
20:00+20wnw1165100 0.0 102165
8 october, sat
sat823:00+19wsw0165100 0.0 102173
02:00+18ese1169100 0.0 102090
05:00+18ese1166100 0.0 101996
08:00+18ese1165100 0.0 101998
11:00+20sse1157100 0.0 1020328
14:00+21wsw1154100 0.0 1019550
17:00+21nw225998 0.0 1018276
20:00+19n116229 0.0 101974
9 october, sun
sun923:00+19nne226466 0.0 102099
02:00+18ne566989 0.0 1020160
05:00+18ne710685 0.0 1019283
08:00+17ne897285 0.0 1020253
11:00+20ne675828 0.0 1021585
14:00+22nne445197 0.0 1020757
17:00+22n4457100 0.0 1019172
20:00+19ne566366 0.0 1020168
10 october, mon
mon1023:00+18ne56645 0.0 1020118
02:00+17ne45615 0.0 102093
05:00+17ne33615 0.0 102073
08:00+17ene226124 0.0 102172
11:00+21s114980 0.0 1022401
14:00+22wsw2252100 0.0 1021660
17:00+20wnw115863 0.0 1021182
20:00+18e11655 0.0 102272